Time,TemperatureF,DewpointF,PressureIn,WindDirection,WindDirectionDegrees,WindSpeedMPH,WindSpeedGustMPH,Humidity,HourlyPrecipIn,Conditions,Clouds,dailyrainin,SolarRadiationWatts/m^2,SoftwareType,DateUTC
2013-05-21 00:02:00,76.0,63.0,-100.00,East,87,16.0,21.0,65,0.00,,,0.00,0.000000,,2013-05-21 05:02:00,
2013-05-21 00:32:00,77.0,64.0,-100.00,East,100,12.0,19.0,64,0.00,,,0.00,0.000000,,2013-05-21 05:32:00,
2013-05-21 00:42:00,77.0,64.0,-100.00,East,100,12.0,19.0,64,0.00,,,0.00,0.000000,,2013-05-21 05:42:00,
2013-05-21 00:52:00,77.0,64.0,-100.00,East,100,12.0,19.0,64,0.00,,,0.00,0.000000,,2013-05-21 05:52:00,
2013-05-21 01:02:00,77.0,64.0,-100.00,East,100,12.0,19.0,64,0.00,,,0.00,0.000000,,2013-05-21 06:02:00,
2013-05-21 01:32:00,80.0,67.0,-100.00,SE,129,15.0,24.0,64,0.00,,,0.00,0.000000,,2013-05-21 06:32:00,
2013-05-21 01:42:00,80.0,67.0,-100.00,SE,129,15.0,24.0,64,0.00,,,0.00,0.000000,,2013-05-21 06:42:00,
2013-05-21 01:52:00,80.0,67.0,-100.00,SE,129,15.0,24.0,64,0.00,,,0.00,0.000000,,2013-05-21 06:52:00,
2013-05-21 02:01:00,80.0,67.0,-100.00,SE,129,15.0,24.0,64,0.00,,,0.00,0.000000,,2013-05-21 07:01:00,
2013-05-21 02:32:00,78.0,67.0,-100.00,SE,136,13.0,25.0,68,0.00,,,0.00,0.000000,,2013-05-21 07:32:00,
2013-05-21 02:42:00,78.0,67.0,-100.00,SE,136,13.0,25.0,68,0.00,,,0.00,0.000000,,2013-05-21 07:42:00,
2013-05-21 02:52:00,78.0,67.0,-100.00,SE,136,13.0,25.0,68,0.00,,,0.00,0.000000,,2013-05-21 07:52:00,
2013-05-21 03:02:00,78.0,67.0,-100.00,SE,136,13.0,25.0,68,0.00,,,0.00,0.000000,,2013-05-21 08:02:00,
2013-05-21 04:33:00,75.0,67.0,-100.00,SSE,149,11.0,19.0,75,-99.99,,,0.00,0.000000,,2013-05-21 09:33:00,
2013-05-21 04:42:00,75.0,67.0,-100.00,SSE,149,11.0,19.0,75,-99.99,,,0.00,0.000000,,2013-05-21 09:42:00,
2013-05-21 04:53:00,75.0,67.0,-100.00,SSE,149,11.0,19.0,75,-99.99,,,0.00,0.000000,,2013-05-21 09:53:00,
2013-05-21 05:02:00,75.0,67.0,-100.00,SSE,149,11.0,19.0,75,-99.99,,,0.00,0.000000,,2013-05-21 10:02:00,
2013-05-21 05:33:00,74.0,67.0,-100.00,SE,137,9.0,17.0,78,0.00,,,0.00,0.000000,,2013-05-21 10:33:00,
2013-05-21 05:42:00,74.0,67.0,-100.00,SE,137,9.0,17.0,78,0.00,,,0.00,0.000000,,2013-05-21 10:42:00,
2013-05-21 05:52:00,74.0,67.0,-100.00,SE,137,9.0,17.0,78,0.00,,,0.00,0.000000,,2013-05-21 10:52:00,
2013-05-21 06:02:00,74.0,67.0,-100.00,SE,137,9.0,17.0,78,0.00,,,0.00,0.000000,,2013-05-21 11:02:00,
2013-05-21 06:32:00,72.0,66.0,-100.00,SE,135,6.0,11.0,82,0.00,,,0.00,0.000000,,2013-05-21 11:32:00,
2013-05-21 06:42:00,72.0,66.0,-100.00,SE,135,6.0,11.0,82,0.00,,,0.00,0.000000,,2013-05-21 11:42:00,
2013-05-21 06:52:00,72.0,66.0,-100.00,SE,135,6.0,11.0,82,0.00,,,0.00,0.000000,,2013-05-21 11:52:00,
2013-05-21 07:01:00,72.0,66.0,-100.00,SE,135,6.0,11.0,82,0.00,,,0.00,0.000000,,2013-05-21 12:01:00,
2013-05-21 07:32:00,72.0,67.0,-100.00,ESE,123,7.0,11.0,84,0.00,,,0.00,8.000000,,2013-05-21 12:32:00,
2013-05-21 07:42:00,72.0,67.0,-100.00,ESE,123,7.0,11.0,84,0.00,,,0.00,8.000000,,2013-05-21 12:42:00,
2013-05-21 07:52:00,72.0,67.0,-100.00,ESE,123,7.0,11.0,84,0.00,,,0.00,8.000000,,2013-05-21 12:52:00,
2013-05-21 08:01:00,72.0,67.0,-100.00,ESE,123,7.0,11.0,84,0.00,,,0.00,8.000000,,2013-05-21 13:01:00,
2013-05-21 08:32:00,74.0,67.0,-100.00,SE,131,10.0,15.0,80,0.00,,,-99.99,108.000000,,2013-05-21 13:32:00,
2013-05-21 08:42:00,74.0,67.0,-100.00,SE,131,10.0,15.0,80,0.00,,,-99.99,108.000000,,2013-05-21 13:42:00,
2013-05-21 08:52:00,74.0,67.0,-100.00,SE,131,10.0,15.0,80,0.00,,,-99.99,108.000000,,2013-05-21 13:52:00,
2013-05-21 09:01:00,74.0,67.0,-100.00,SE,131,10.0,15.0,80,0.00,,,-99.99,108.000000,,2013-05-21 14:01:00,
2013-05-21 09:32:00,76.0,67.0,-100.00,South,185,13.0,20.0,74,0.00,,,0.00,174.000000,,2013-05-21 14:32:00,
2013-05-21 09:42:00,76.0,67.0,-100.00,South,185,13.0,20.0,74,0.00,,,0.00,174.000000,,2013-05-21 14:42:00,
2013-05-21 09:52:00,76.0,67.0,-100.00,South,185,13.0,20.0,74,0.00,,,0.00,174.000000,,2013-05-21 14:52:00,
2013-05-21 10:01:00,76.0,67.0,-100.00,South,185,13.0,20.0,74,0.00,,,0.00,174.000000,,2013-05-21 15:01:00,
2013-05-21 11:32:00,78.0,68.0,-100.00,SSW,200,10.0,16.0,72,-99.99,,,0.00,89.000000,,2013-05-21 16:32:00,
2013-05-21 11:42:00,78.0,68.0,-100.00,SSW,200,10.0,16.0,72,-99.99,,,0.00,89.000000,,2013-05-21 16:42:00,
2013-05-21 11:53:00,78.0,68.0,-100.00,SSW,200,10.0,16.0,72,-99.99,,,0.00,89.000000,,2013-05-21 16:53:00,
2013-05-21 12:02:00,78.0,68.0,-100.00,SSW,200,10.0,16.0,72,-99.99,,,0.00,89.000000,,2013-05-21 17:02:00,
2013-05-21 12:33:00,84.0,70.0,-100.00,SSW,204,11.0,18.0,62,0.00,,,-99.99,668.000000,,2013-05-21 17:33:00,
2013-05-21 12:44:00,84.0,70.0,-100.00,SSW,204,11.0,18.0,62,0.00,,,-99.99,668.000000,,2013-05-21 17:44:00,
2013-05-21 12:52:00,84.0,70.0,-100.00,SSW,204,11.0,18.0,62,0.00,,,-99.99,668.000000,,2013-05-21 17:52:00,
2013-05-21 13:02:00,84.0,70.0,-100.00,SSW,204,11.0,18.0,62,0.00,,,-99.99,668.000000,,2013-05-21 18:02:00,
2013-05-21 13:32:00,88.0,68.0,-100.00,SW,226,10.0,19.0,51,0.00,,,0.00,831.000000,,2013-05-21 18:32:00,
2013-05-21 13:42:00,88.0,68.0,-100.00,SW,226,10.0,19.0,51,0.00,,,0.00,831.000000,,2013-05-21 18:42:00,
2013-05-21 13:52:00,88.0,68.0,-100.00,SW,226,10.0,19.0,51,0.00,,,0.00,831.000000,,2013-05-21 18:52:00,
2013-05-21 14:01:00,88.0,68.0,-100.00,SW,226,10.0,19.0,51,0.00,,,0.00,831.000000,,2013-05-21 19:01:00,
2013-05-21 14:32:00,72.0,55.0,-100.00,North,358,22.0,35.0,56,0.00,,,-99.99,717.000000,,2013-05-21 19:32:00,
2013-05-21 14:42:00,72.0,55.0,-100.00,North,358,22.0,35.0,56,0.00,,,-99.99,717.000000,,2013-05-21 19:42:00,
2013-05-21 14:52:00,72.0,55.0,-100.00,North,358,22.0,35.0,56,0.00,,,-99.99,717.000000,,2013-05-21 19:52:00,
2013-05-21 15:03:00,72.0,55.0,-100.00,North,358,22.0,35.0,56,0.00,,,-99.99,717.000000,,2013-05-21 20:03:00,
2013-05-21 15:33:00,74.0,54.0,-100.00,North,2,17.0,32.0,50,0.00,,,-99.99,902.000000,,2013-05-21 20:33:00,
2013-05-21 15:42:00,74.0,54.0,-100.00,North,2,17.0,32.0,50,0.00,,,-99.99,902.000000,,2013-05-21 20:42:00,
2013-05-21 15:52:00,74.0,54.0,-100.00,North,2,17.0,32.0,50,0.00,,,-99.99,902.000000,,2013-05-21 20:52:00,
2013-05-21 16:02:00,74.0,54.0,-100.00,North,2,17.0,32.0,50,0.00,,,-99.99,902.000000,,2013-05-21 21:02:00,
2013-05-21 16:33:00,77.0,53.0,-100.00,North,6,13.0,24.0,43,0.00,,,-99.99,932.000000,,2013-05-21 21:33:00,
2013-05-21 16:43:00,77.0,53.0,-100.00,North,6,13.0,24.0,43,0.00,,,-99.99,932.000000,,2013-05-21 21:43:00,
2013-05-21 16:54:00,77.0,53.0,-100.00,North,6,13.0,24.0,43,0.00,,,-99.99,932.000000,,2013-05-21 21:54:00,
2013-05-21 17:02:00,77.0,53.0,-100.00,North,6,13.0,24.0,43,0.00,,,-99.99,932.000000,,2013-05-21 22:02:00,
2013-05-21 17:33:00,79.0,53.0,-100.00,North,352,13.0,21.0,40,0.00,,,0.00,786.000000,,2013-05-21 22:33:00,
2013-05-21 17:42:00,79.0,53.0,-100.00,North,352,13.0,21.0,40,0.00,,,0.00,786.000000,,2013-05-21 22:42:00,
2013-05-21 17:53:00,79.0,53.0,-100.00,North,352,13.0,21.0,40,0.00,,,0.00,786.000000,,2013-05-21 22:53:00,
2013-05-21 18:02:00,79.0,53.0,-100.00,North,352,13.0,21.0,40,0.00,,,0.00,786.000000,,2013-05-21 23:02:00,
2013-05-21 18:32:00,80.0,51.0,-100.00,North,357,11.0,17.0,37,0.00,,,0.00,571.000000,,2013-05-21 23:32:00,
2013-05-21 18:42:00,80.0,51.0,-100.00,North,357,11.0,17.0,37,0.00,,,0.00,571.000000,,2013-05-21 23:42:00,
2013-05-21 18:52:00,80.0,51.0,-100.00,North,357,11.0,17.0,37,0.00,,,0.00,571.000000,,2013-05-21 23:52:00,
2013-05-21 19:01:00,80.0,51.0,-100.00,North,357,11.0,17.0,37,0.00,,,0.00,571.000000,,2013-05-22 00:01:00,
2013-05-21 19:32:00,80.0,50.0,-100.00,NNW,344,11.0,19.0,35,0.00,,,0.00,365.000000,,2013-05-22 00:32:00,
2013-05-21 19:42:00,80.0,50.0,-100.00,NNW,344,11.0,19.0,35,0.00,,,0.00,365.000000,,2013-05-22 00:42:00,
2013-05-21 19:52:00,80.0,50.0,-100.00,NNW,344,11.0,19.0,35,0.00,,,0.00,365.000000,,2013-05-22 00:52:00,
2013-05-21 20:01:00,80.0,50.0,-100.00,NNW,344,11.0,19.0,35,0.00,,,0.00,365.000000,,2013-05-22 01:01:00,
2013-05-21 20:32:00,77.0,50.0,-100.00,NNW,340,10.0,15.0,39,0.00,,,0.00,134.000000,,2013-05-22 01:32:00,
2013-05-21 20:42:00,77.0,50.0,-100.00,NNW,340,10.0,15.0,39,0.00,,,0.00,134.000000,,2013-05-22 01:42:00,
2013-05-21 20:52:00,77.0,50.0,-100.00,NNW,340,10.0,15.0,39,0.00,,,0.00,134.000000,,2013-05-22 01:52:00,
2013-05-21 21:01:00,77.0,50.0,-100.00,NNW,340,10.0,15.0,39,0.00,,,0.00,134.000000,,2013-05-22 02:01:00,
2013-05-21 21:32:00,73.0,49.0,-100.00,North,8,4.0,12.0,43,0.00,,,0.00,8.000000,,2013-05-22 02:32:00,
2013-05-21 21:42:00,73.0,49.0,-100.00,North,8,4.0,12.0,43,0.00,,,0.00,8.000000,,2013-05-22 02:42:00,
2013-05-21 21:52:00,73.0,49.0,-100.00,North,8,4.0,12.0,43,0.00,,,0.00,8.000000,,2013-05-22 02:52:00,
2013-05-21 22:01:00,73.0,49.0,-100.00,North,8,4.0,12.0,43,0.00,,,0.00,8.000000,,2013-05-22 03:01:00,
2013-05-21 22:33:00,70.0,48.0,-100.00,NE,44,6.0,7.0,46,0.00,,,0.00,0.000000,,2013-05-22 03:33:00,
2013-05-21 22:43:00,70.0,48.0,-100.00,NE,44,6.0,7.0,46,0.00,,,0.00,0.000000,,2013-05-22 03:43:00,
2013-05-21 22:53:00,70.0,48.0,-100.00,NE,44,6.0,7.0,46,0.00,,,0.00,0.000000,,2013-05-22 03:53:00,
2013-05-21 23:03:00,70.0,48.0,-100.00,NE,44,6.0,7.0,46,0.00,,,0.00,0.000000,,2013-05-22 04:03:00,
2013-05-21 23:33:00,68.0,48.0,-100.00,ENE,57,5.0,8.0,48,0.00,,,0.00,0.000000,,2013-05-22 04:33:00,
2013-05-21 23:43:00,68.0,48.0,-100.00,ENE,57,5.0,8.0,48,0.00,,,0.00,0.000000,,2013-05-22 04:43:00,
2013-05-21 23:53:00,68.0,48.0,-100.00,ENE,57,5.0,8.0,48,0.00,,,0.00,0.000000,,2013-05-22 04:53:00,